Regional Weather Roundup
Issued by NWS Boston, MA

Home | Current Version | Previous Version | Text Only | Print | Product List | Glossary On
Versions: 1 2 3 4 5 6 7 8 9 10 11 12 13 14 15 16 17 18 19 20 21 22 23 24 25 26 27 28
000
ASUS41 KBOX 280710
RWRBOX

REGIONAL WEATHER ROUNDUP
NATIONAL WEATHER SERVICE TAUNTON MA
300 AM EDT TUE MAR 28 2017

NOTE:  "FAIR" INDICATES FEW OR NO CLOUDS BELOW 12,000 FEET WITH NO
SIGNIFICANT WEATHER AND/OR OBSTRUCTIONS TO VISIBILITY.

MAZALL-280800-
EASTERN MASSACHUSETTS

CITY           SKY/WX    TMP DP  RH WIND       PRES   REMARKS
BOSTON         CLOUDY    36  36 100 NE5       30.03F
BEVERLY        CLOUDY    35  35 100 N5        30.02F WCI  31
LAWRENCE       CLOUDY    33  33 100 NE8       30.03F WCI  26
BEDFORD        CLOUDY    36  33  89 NE5       30.01F
BLUE HILL        N/A     34  34 100 CALM      29.99S
NORWOOD        CLOUDY    39  37  92 CALM      30.03S FOG
MARSHFIELD     CLOUDY    37  37 100 CALM      30.03R
PLYMOUTH       CLOUDY    37  36  96 NE6       30.02S
TAUNTON        CLOUDY    39  37  92 CALM      30.01F FOG
NEW BEDFORD    CLOUDY    40  38  93 CALM      30.00F
$$

MAZALL-280800-
CAPE COD AND THE ISLANDS

CITY           SKY/WX    TMP DP  RH WIND       PRES   REMARKS
FALMOUTH         N/A     36  36 100 MISG      30.02F FOG
HYANNIS        CLOUDY    37  37 100 N9        29.99F FOG     WCI  30
CHATHAM        FOG       38  38 100 VRB7      30.02F VSB 1
PROVINCETOWN   CLOUDY    37  36  96 N10       30.03S WCI  30
NANTUCKET      FOG       37  36  96 N13       30.00F VSB 3/4 WCI  29
MARTHAS VNYRD  CLOUDY    38  37  97 N9        30.01S FOG     WCI  31
$$

MAZALL-280800-
CENTRAL AND WESTERN MASSACHUSETTS

CITY           SKY/WX    TMP DP  RH WIND       PRES   REMARKS
WORCESTER      FOG       35  33  92 CALM      29.98F VSB 1/4
FITCHBURG      CLOUDY    36  36 100 CALM      30.02S FOG
ORANGE         FOG       34  34 100 CALM      30.00S VSB 1/2
SPRINGFIELD    FOG       37  37 100 NE5       29.96F VSB 1/2
WESTFIELD      CLOUDY    38  38 100 CALM      29.99F FOG
NORTH ADAMS    CLOUDY    38  36  92 CALM      29.97F
PITTSFIELD     FOG       36  35  96 CALM      29.94F VSB 1/4
$$

RIZALL-280800-
RHODE ISLAND

CITY           SKY/WX    TMP DP  RH WIND       PRES   REMARKS
PROVIDENCE     CLOUDY    40  38  93 N7        30.02S
NEWPORT        FOG       40  40 100 N5        30.00F VSB 3/4
BLOCK ISLAND   LGT RAIN  40  40 100 NE5       30.01F VSB 1/4
SMITHFIELD     CLOUDY    37  37 100 NE5       30.01S FOG
WESTERLY       CLOUDY    42  41  96 CALM      30.00F
$$

CTZALL-280800-
CONNECTICUT

CITY           SKY/WX    TMP DP  RH WIND       PRES   REMARKS
BRADLEY INTL   CLOUDY    38  38 100 CALM      29.99F
HARTFORD       CLOUDY    39  38  96 CALM      30.00F FOG
BRIDGEPORT     CLOUDY    41  39  93 E9        29.98F FOG
DANBURY        FOG       42  42 100 CALM      29.98F VSB 1/2
GROTON         CLOUDY    41  39  93 N7        30.00F
NEW HAVEN      CLOUDY    40  39  97 NE5       29.99F
CHESTER        NOT AVBL
MERIDEN        CLOUDY    41  39  93 N3        29.99F FOG
WILLIMANTIC    FOG       42  41  96 CALM      30.00F VSB 1/4
OXFORD         CLOUDY    37  36  93 S3        29.98F VSB 1/4
$$

MEZ002-015-021-024-NHZ003-005-008-011-012-014-VTZ005-008-280800-
NORTHERN NEW ENGLAND

CITY           SKY/WX    TMP DP  RH WIND       PRES   REMARKS
PORTLAND ME    CLOUDY    33  31  92 VRB6      30.03F WCI  28
BANGOR ME      CLOUDY    30  29  96 N7        30.02F FOG     WCI  23
CONCORD NH     CLOUDY    34  32  92 CALM      30.01F
MANCHESTER NH  CLOUDY    35  32  88 CALM      30.01F
NASHUA NH      CLOUDY    35  35 100 CALM      30.03F
PORTSMOUTH NH  CLOUDY    34  32  93 VRB5      30.02F WCI  30
JAFFREY NH     FOG       34  33  96 CALM      29.99S VSB 3/4
KEENE NH       CLOUDY    34  34 100 CALM      30.01F
BURLINGTON VT  CLOUDY    41  39  93 S5        29.92F
MT. WASHINGTON FOG       34  34 100 W38         N/A  VSB 0   WCI  19
$$

NYZ052-076-280800-
EASTERN NEW YORK

CITY           SKY/WX    TMP DP  RH WIND       PRES   REMARKS
ALBANY         CLOUDY    44  40  85 CALM      29.96F
NEW YORK CITY  FOG       43  40  89 NE10      29.96F VSB 1/4
$$

ANZALL-280800-
MARINE OBSERVATIONS

STATION/POSITION TIME  TEMP    WIND        PRES    VSBY  WAVE
                       AIR SEA DIR/SP/G                  HT/PER
                 (UTC) (F)     (DEG/KT/KT) (MB)    (MI)  (FT/S)
BOSTON BUOY      0550   37 40  350/ 10/ 12 1016.8          4/ 7
BUZZARDS BAY     0600   40      10/  8/  8 1016.9F
NANTUCKET SOUND  0650      38              1016.0F         2/ 4
MASS BAY-STELLWA 0604   36 39  350/ 12/ 16 1016.0R         4/ 7
ISLE OF SHOALS   0600   34     350/  9/ 10 1017.2R
S OF BLOCK IS    0655      40                N/A           3/ 7
$$

......................KEY.........................
  SKY/WX - SKY CONDITION/PRESENT WEATHER
  TMP    - TEMPERATURE IN FAHRENHEIT
  DWPT   - DEWPOINT IN FAHRENHEIT
  RH     - RELATIVE HUMIDITY IN PERCENT
  WIND   - DIRECTION AND SPEED IN MPH
  PRES   - MEAN SEA LEVEL PRESSURE IN INCHES OF HG
  WCI    - WIND CHILL INDEX
  VSB    - VISIBILITY IN MILES
  HX     - HEAT INDEX
  TC     - TEMPERATURE IN CELSIUS
  VRB    - VARIABLE WIND DIRECTION
  N/A    - NOT AVAILABLE




USA.gov is the U.S. government's official web portal to all federal, state and local government web resources and services.